Minneapolis Flying Cloud, MN

10:30 AM CST on January 22, 2018 (GMT -0600)
Flying Cloud

Weather History for KFCM - January, 2014

Change the Weather History Date:

Monday, January 6, 2014

  Actual Average Record
Temperature  
Mean Temperature -16 °F -  
Max Temperature -11 °F 23 °F 46 °F (2012)
Min Temperature -22 °F 8 °F -22 °F (2014)
Degree Days  
Heating Degree Days 82    
Moisture  
Dew Point -26 °F    
Average Humidity 64    
Maximum Humidity 74    
Minimum Humidity 54    
Precipitation  
Precipitation 0.00 in - - ()
Sea Level Pressure  
Sea Level Pressure 30.32 in    
Wind  
Wind Speed 12 mph (WNW)    
Max Wind Speed 18 mph    
Max Gust Speed 24 mph    
Visibility 8 miles    
Events Snow    
Averages and records for this station are not official NWS values.
T = Trace of Precipitation, MM = Missing Value Source: NWS Daily Summary

Daily Weather History Graph

Daily Weather History Graph

Search for Another Location

Airport or City:

Trip Planner

Search our weather history database for the weather conditions in past years. The results will help you decide how hot, cold, wet, or windy it might be!

Date:

Astronomy

Jan. 06, 2014 Rise Set
Actual Time 7:51 AM CST 4:48 PM CST
Civil Twilight 7:17 AM CST 5:21 PM CST
Nautical Twilight 6:41 AM CST 5:58 PM CST
Astronomical Twilight 6:05 AM CST 6:34 PM CST
Moon 10:50 AM CST (1/6) 11:40 PM CST (1/6)
Length of Visible Light 10h 03m
Length of Day
8h 57m
Waxing Crescent, 35% of the Moon is Illuminated
Jan 6
Waxing Crescent
Jan 7
First Quarter
Jan 15
Full
Jan 23
Last Quarter
Jan 30
New

Hourly Weather History & Observations

Time (CST) Temp. Windchill Dew Point Humidity Pressure Visibility Wind Dir Wind Speed Gust Speed Precip Events Conditions
12:53 AM -20.0 °F -41.1 °F -29.9 °F 60% 30.38 in 10.0 mi WNW 10.4 mph 19.6 mph N/A   Scattered Clouds
1:32 AM -20.2 °F -41.3 °F -29.2 °F 63% 30.29 in 6.0 mi WNW 10.4 mph - N/A   Haze
1:50 AM -20.2 °F -43.4 °F -29.2 °F 63% 30.29 in 7.0 mi NW 12.7 mph - N/A   Scattered Clouds
1:53 AM -20.9 °F -45.3 °F -29.0 °F 66% 30.38 in 6.0 mi WNW 13.8 mph - N/A   Haze
2:53 AM -20.9 °F -43.3 °F -31.0 °F 60% 30.39 in 10.0 mi WNW 11.5 mph - N/A   Clear
3:53 AM -20.9 °F -44.3 °F -29.9 °F 63% 30.39 in 10.0 mi WNW 12.7 mph - N/A   Partly Cloudy
4:53 AM -22.0 °F -46.6 °F -31.0 °F 63% 30.39 in 10.0 mi WNW 13.8 mph 19.6 mph N/A   Clear
5:53 AM -20.9 °F -42.2 °F -31.0 °F 60% 30.39 in 10.0 mi WNW 10.4 mph 20.7 mph N/A   Partly Cloudy
6:53 AM -20.9 °F -38.1 °F -27.9 °F 70% 30.38 in 4.0 mi West 6.9 mph - N/A   Haze
7:53 AM -20.9 °F -39.7 °F -29.0 °F 66% 30.38 in 8.0 mi West 8.1 mph - 0.00 in   Mostly Cloudy
8:30 AM -20.2 °F -40.1 °F -27.4 °F 69% 30.27 in 4.0 mi West 9.2 mph - 0.00 in   Mostly Cloudy
8:50 AM -20.2 °F -41.3 °F -27.4 °F 69% 30.28 in 3.0 mi West 10.4 mph - 0.00 in   Haze
8:53 AM -20.0 °F -41.1 °F -27.9 °F 67% 30.38 in 3.0 mi West 10.4 mph - 0.00 in   Haze
9:17 AM -18.4 °F -40.2 °F -27.4 °F 63% 30.28 in 3.0 mi West 11.5 mph 18.4 mph N/A   Haze
9:38 AM -18.4 °F -42.9 °F -27.4 °F 63% 30.28 in 6.0 mi West 15.0 mph 21.9 mph 0.00 in   Haze
9:53 AM -18.0 °F -43.3 °F -27.0 °F 64% 30.38 in 4.0 mi WNW 16.1 mph 21.9 mph 0.00 in   Haze
10:09 AM -18.4 °F -45.2 °F -25.6 °F 70% 30.28 in 4.0 mi West 18.4 mph 23.0 mph N/A   Haze
10:16 AM -18.4 °F -44.5 °F -27.4 °F 63% 30.28 in 7.0 mi WNW 17.3 mph 23.0 mph 0.00 in   Overcast
10:24 AM -16.6 °F -38.9 °F -25.6 °F 64% 30.28 in 4.0 mi WNW 12.7 mph 19.6 mph 0.00 in   Haze
10:40 AM -16.6 °F -40.6 °F -27.4 °F 58% 30.27 in 7.0 mi West 15.0 mph - 0.00 in   Overcast
10:53 AM -16.1 °F -40.7 °F -26.0 °F 61% 30.37 in 9.0 mi WNW 16.1 mph 23.0 mph 0.00 in   Overcast
11:18 AM -16.6 °F -40.6 °F -25.6 °F 64% 30.26 in 4.0 mi West 15.0 mph 20.7 mph 0.00 in Snow Light Snow
11:38 AM -14.8 °F -38.3 °F -25.6 °F 58% 30.25 in 9.0 mi WNW 15.0 mph 23.0 mph 0.00 in   Partly Cloudy
11:53 AM -15.0 °F -38.5 °F -26.0 °F 58% 30.35 in 10.0 mi WNW 15.0 mph - 0.00 in   Partly Cloudy
12:53 PM -13.0 °F -35.2 °F -24.0 °F 58% 30.32 in 10.0 mi WNW 13.8 mph 21.9 mph N/A   Scattered Clouds
1:53 PM -11.9 °F -33.8 °F -22.0 °F 61% 30.32 in 10.0 mi West 13.8 mph 19.6 mph N/A   Scattered Clouds
2:46 PM -11.2 °F -35.2 °F -22.0 °F 59% 30.22 in 9.0 mi WNW 17.3 mph 24.2 mph N/A   Mostly Cloudy
2:53 PM -11.9 °F -35.4 °F -23.1 °F 58% 30.32 in 10.0 mi West 16.1 mph 24.2 mph N/A   Mostly Cloudy
3:06 PM -11.2 °F -33.7 °F -23.8 °F 54% 30.22 in 10.0 mi West 15.0 mph 20.7 mph N/A   Mostly Cloudy
3:53 PM -13.0 °F -33.4 °F -23.1 °F 61% 30.33 in 10.0 mi West 11.5 mph 20.7 mph N/A   Mostly Cloudy
4:53 PM -14.1 °F -36.6 °F -24.0 °F 61% 30.32 in 10.0 mi West 13.8 mph 19.6 mph N/A   Scattered Clouds
5:53 PM -15.0 °F -34.8 °F -24.0 °F 64% 30.33 in 10.0 mi West 10.4 mph 18.4 mph N/A   Clear
6:53 PM -15.0 °F -32.4 °F -23.1 °F 67% 30.32 in 10.0 mi West 8.1 mph - N/A   Overcast
7:53 PM -15.0 °F -29.3 °F -23.1 °F 67% 30.31 in 10.0 mi West 5.8 mph - N/A   Clear
8:53 PM -16.1 °F -33.7 °F -23.1 °F 71% 30.30 in 10.0 mi West 8.1 mph - N/A   Clear
9:53 PM -16.1 °F -32.3 °F -23.1 °F 71% 30.29 in 10.0 mi West 6.9 mph - N/A   Clear
10:53 PM -16.1 °F -28.6 °F -22.0 °F 74% 30.28 in 10.0 mi West 4.6 mph - N/A   Clear
11:53 PM -17.0 °F -31.7 °F -23.1 °F 74% 30.26 in 10.0 mi SW 5.8 mph - N/A   Clear